Regional Weather Roundup
Issued by NWS

Home | Current Version | Previous Version | Text Only | Print | Product List | Glossary Off
Versions: 1 2 3 4 5 6 7 8 9 10 11 12 13 14 15 16 17 18 19 20 21 22 23 24 25 26 27 28 29 30 31 32 33 34 35 36 37 38 39 40 41 42 43 44 45 46 47 48 49 50

000
ASUS43 KLMK 231510
RWRKY
KENTUCKY REGIONAL WEATHER ROUNDUP
NATIONAL WEATHER SERVICE LOUISVILLE KY
1100 AM EDT SAT JUL 23 2016

NOTE "FAIR" INDICATES FEW OR NO CLOUDS BELOW 12,000 FEET
WITH NO SIGNIFICANT WEATHER AND/OR OBSTRUCTIONS TO VISIBILITY.

KYZ001>023-026-027-061>063-070>075-231600-
WESTERN AND SOUTH CENTRAL KENTUCKY

CITY           SKY/WX    TMP DP  RH WIND       PRES   REMARKS
PADUCAH        MOSUNNY   83  74  74 CALM      30.00S
HENDERSON      MOSUNNY   82  75  78 SE5       30.00S
OWENSBORO      PTSUNNY   86  77  74 S5        30.02F HX  97
HOPKINSVILLE   PTSUNNY   82  74  75 VRB2      30.01F
BOWLING GREEN  MOSUNNY   84  76  76 CALM      30.03S HX  93
GLASGOW        MOSUNNY   82  76  80 NE3       30.04S
$$

KYZ024-025-028>034-038-045-046-053-231600-
NORTH CENTRAL KENTUCKY

CITY           SKY/WX    TMP DP  RH WIND       PRES   REMARKS
LOUISVILLE/SDF MOSUNNY   85  73  67 S3        30.02F HX  91
LOUISVILLE/LOU SUNNY     86  72  62 VRB3      30.03F HX  92
FORT KNOX      MOSUNNY   82  73  72 E1        30.02F
$$

KYZ035>037-039>044-047>052-055>060-089>105-231600-
NORTHEAST KENTUCKY

CITY           SKY/WX    TMP DP  RH WIND       PRES   REMARKS
LEXINGTON      SUNNY     84  71  65 CALM      30.05F
COVINGTON      MOSUNNY   84  74  71 S5        30.04F HX  91
FRANKFORT      SUNNY     84  71  65 E5        30.04S
$$

KYZ054-064>069-076>088-106>120-231600-
SOUTHEAST KENTUCKY

CITY           SKY/WX    TMP DP  RH WIND       PRES   REMARKS
JACKSON        MOSUNNY   81  71  71 CALM      30.08S
LONDON         MOSUNNY   84  70  62 S3        30.07S
SOMERSET       SUNNY     81  72  74 E3        30.07S
MIDDLESBORO    SUNNY     85  75  72 CALM      30.07S HX  94
MONTICELLO     MOSUNNY  N/A N/A N/A VRB5      30.07S
$$





USA.gov is the U.S. government's official web portal to all federal, state and local government web resources and services.